Погода в Каменке

Россия / Санкт-Петербург и Ленинградская область     60°26′46″N   29°05′12″E
темп.,
°C
ветер,
м/с
пор.,
м/с
влажн.,
%
обл.,
%
осадки,
мм/ч
давл.,
гПа
погр.,
м
8 марта, пн
пн800:00−8с51188100 0.1 1000839
03:00−10ссв51288100 0.2 1004796
06:00−11с41189100 0.1 1007566
09:00−13с498788 0.1 1010416
12:00−10с37771 0.0 1013483
15:00−8с46700 0.0 1014837
18:00−10с37780 0.0 1015587
21:00−14с24910 0.0 1017107
9 марта, вт
вт900:00−15ссв129310 0.0 101822
03:00−16всв129516 0.0 101922
06:00−15в2395100 0.0 1019120
09:00−15в3689100 0.0 1019293
12:00−12вюв3582100 0.0 1020517
15:00−11в467293 0.0 1021603
18:00−14всв48791 0.0 1022431
21:00−17всв39901 0.0 1024304
10 марта, ср
ср1000:00−18всв39900 0.0 1026286
03:00−18всв38910 0.0 1027220
06:00−19всв26910 0.0 1027149
09:00−17в358141 0.0 1029178
12:00−12всв2471100 0.0 1030301
15:00−8в236174 0.0 1030548
18:00−9в22760 0.0 102934
21:00−14юв23880 0.0 102944
11 марта, чт
чт1100:00−16юв23790 0.0 102956
03:00−16юв25820 0.0 1028103
06:00−16ююв37830 0.0 1026188
09:00−13ююв412750 0.0 1024370
12:00−8ююв512600 0.0 1022692
15:00−6ююв612580 0.0 1019780
18:00−7ююв613740 0.0 1015677
21:00−9ююв6158631 0.0 1012614
12 марта, пт
пт1200:00−7ююв71686100 0.0 1009788
03:00−6ююв71583100 0.1 1005915
06:00−6ююв81781100 0.0 1001974
09:00−4ююв81689100 0.6 9981195
12:00−3ююв81591100 1.7 9951053
15:00−1ююв71394100 4.0 994886
18:000ю51198100 4.1 994543
21:00+1ююз51298100 5.9 993591